Regional Weather Roundup
Issued by NWS Midland/Odessa, TX

Skip options and go directly to product.
Home | Oldest Version | Next Version | Current Version | All | Text Only | Save Text | Print | Product List | Glossary On

Skip product version selection by date and time.   
279
ASUS44 KMAF 250902
RWRMAF
MIDLAND AREA WEATHER ROUNDUP
NATIONAL WEATHER SERVICE MIDLAND TX
400 AM CDT FRI JUL 25 2014

...IN SOUTHWEST TEXAS AND SOUTHEAST NEW MEXICO...

CITY           SKY/WX    TMP DP  RH WIND       PRES   REMARKS
ALPINE         CLEAR     70  55  58 W6        30.24F
ANDREWS        FAIR      77  59  53 S8        30.10S
ARTESIA        CLEAR     73  48  40 S6        30.09F
BIG SPRING     CLEAR     77  61  59 SE7       30.09S
CARLSBAD       CLEAR     78  50  37 S8        30.07F
DRYDEN           N/A     79  64  60 N6        30.04F
FORT STOCKTON  CLEAR     75  61  61 S10       30.09F
GUAD PASS      CLEAR     75  49  39 S10G17      N/A
HOBBS          CLEAR     73  57  56 SE6       30.13F
MARFA          CLEAR     63  54  72 N7        30.24F
MIDLAND AIRPK  CLEAR     79  62  55 S6        30.08F
MIDLAND INTL   CLEAR     78  62  57 SW8       30.08F
ODESSA         CLEAR     77  61  57 S8        30.09F
PECOS          CLEAR     74  57  55 E7        30.05F
PRESIDIO       FAIR      80  56  43 CALM      30.07S
SEMINOLE       CLEAR     73  58  60 S6        30.11F
SNYDER         CLEAR     74  63  67 S6        30.08R
WINK           CLEAR     80  61  52 SE10      30.05F
$$
...OTHER STATIONS IN TEXAS...

CITY           SKY/WX    TMP DP  RH WIND       PRES   REMARKS
ABILENE        CLEAR     78  66  66 S7        30.04S
AMARILLO       CLEAR     75  61  61 S17       30.09F
AUSTIN         PTCLDY    75  71  87 S7        30.00F
BROWNSVILLE    CLEAR     79  76  90 S7        29.98F
CORPUS CHRISTI PTCLDY    78  74  87 SE6       29.98F
DALLAS FTW     CLEAR     76  68  76 SE6       30.01S
DEL RIO        CLEAR     79  67  66 E7        30.00S
EL PASO        PTCLDY    78  52  40 SW5       30.10F
HOUSTON INT    PTCLDY    75  73  93 CALM      30.00F
LUBBOCK        CLEAR     78  61  55 S14       30.09F
SAN ANGELO     CLEAR     72  63  73 S5        30.05S
SAN ANTONIO    PTCLDY    78  71  79 S6        30.02F
WACO           CLEAR     74  67  78 CALM      30.00S
WICHITA FALLS  NOT AVBL
$$
...OTHER LOCATIONS IN NEW MEXICO...

CITY           SKY/WX    TMP DP  RH WIND       PRES   REMARKS
ALAMAGORDO     CLEAR     77  45  31 SE9       30.13F
ALBUQUERQUE    PTCLDY    73  42  32 SE7       30.20F
CANNON AFB     CLEAR     71  58  62 SW8       30.15F
CLOVIS         CLEAR     70  55  60 S7        30.17S
HOLLOMAN AFB   CLEAR     74  44  33 S5        30.10F
ROSWELL        CLEAR     73  47  39 S7        30.09F
RUIDOSO        CLEAR     63  43  48 SW9       30.35F
SANTA FE       PTCLDY    64  45  49 NW3       30.26F
TRUTH OR CONSE CLEAR     73  43  33 W5        30.16F
TUCUMCARI      CLEAR     78  50  37 SW10G26   30.08S
$$

USA.gov is the U.S. government's official web portal to all federal, state and local government web resources and services.